Погода в Новом Кошкуле

Россия / Омская область     55°59′29″N   72°20′13″E
темп.,
°C
ветер,
м/с
пор.,
м/с
влажн.,
%
обл.,
%
осадки,
мм/ч
давл.,
гПа
погр.,
м
18 июня, пт
пт1800:00+17ююз478797 0.6 1003110
03:00+16зюз3386100 0.4 100245
06:00+16ю34884 0.5 100098
09:00+20зсз22728 0.0 998439
12:00+24сз1161100 0.0 9961116
15:00+8ссз91694100 2.8 1001638
18:00+8сз91492100 2.9 1004783
21:00+7ссз81491100 0.1 10061099
19 июня, сб
сб1900:00+7ссз81692100 1.6 10081123
03:00+7сз61390100 0.2 1008600
06:00+8сз51380100 0.2 1009492
09:00+11сз710655 0.1 1009918
12:00+13сз81147100 0.2 10092311
15:00+16ссз71139100 0.0 10092854
18:00+16зсз71150100 0.0 10082021
21:00+12ссз2570100 0.5 1008122
20 июня, вс
вс2000:00+10з41179100 0.5 1008211
03:00+8з49915 0.2 1007164
06:00+9з499358 0.6 1007230
09:00+14з4565100 0.0 1005477
12:00+17юз6756100 0.3 10031379
15:00+11юз4994100 2.8 1001634
18:00+10ююв5997100 5.8 997495
21:00+11сз3798100 2.8 995492
21 июня, пн
пн2100:00+10с71297100 3.2 997699
03:00+9с81495100 0.1 999729
06:00+7с10178956 0.1 10021001
09:00+11ссз10187697 0.1 10031431
12:00+12ссз101569100 0.3 10041561
15:00+12ссз101671100 0.4 10061672
18:00+12с10166745 0.6 10081711
21:00+9ссз9167142 0.1 10091112
22 июня, вт
вт2200:00+7ссз715775 0.1 1009912
03:00+6ссз7138478 0.0 1009781
06:00+7сз71281100 0.0 1009882
09:00+9ссз9117185 0.0 1009981
12:00+12ссз8105899 0.0 10091414
15:00+8с51089100 0.5 1011506
18:00+8ссз51196100 2.6 1012453
21:00+8сз51095100 0.4 1012331